Time,TemperatureF,DewpointF,PressureIn,WindDirection,WindDirectionDegrees,WindSpeedMPH,WindSpeedGustMPH,Humidity,HourlyPrecipIn,Conditions,Clouds,dailyrainin,SoftwareType,DateUTC
2013-01-19 00:15:00,24.8,23.0,30.51,West,270,0.0,0.0,92,0.00,,,0.00,weatherlink.com 1.10,2013-01-19 05:15:00,
2013-01-19 00:30:00,24.6,22.0,30.51,West,270,0.0,0.0,91,0.00,,,0.00,weatherlink.com 1.10,2013-01-19 05:30:00,
2013-01-19 00:45:00,24.2,22.0,30.51,West,270,0.0,0.0,91,0.00,,,0.00,weatherlink.com 1.10,2013-01-19 05:45:00,
2013-01-19 01:00:00,23.9,22.0,30.51,West,270,0.0,0.0,92,0.00,,,0.00,weatherlink.com 1.10,2013-01-19 06:00:00,
2013-01-19 01:15:00,23.9,22.0,30.51,West,270,0.0,0.0,93,0.00,,,0.00,weatherlink.com 1.10,2013-01-19 06:15:00,
2013-01-19 01:30:00,23.6,22.0,30.51,West,270,0.0,0.0,92,0.00,,,0.00,weatherlink.com 1.10,2013-01-19 06:30:00,
2013-01-19 01:45:00,23.4,22.0,30.51,West,270,0.0,0.0,92,0.00,,,0.00,weatherlink.com 1.10,2013-01-19 06:45:00,
2013-01-19 02:00:00,23.3,22.0,30.51,West,270,0.0,0.0,93,0.00,,,0.00,weatherlink.com 1.10,2013-01-19 07:00:00,
2013-01-19 02:16:00,23.0,21.0,30.52,West,270,0.0,0.0,93,0.00,,,0.00,weatherlink.com 1.10,2013-01-19 07:16:00,
2013-01-19 02:31:00,22.8,21.0,30.52,West,270,0.0,0.0,93,0.00,,,0.00,weatherlink.com 1.10,2013-01-19 07:31:00,
2013-01-19 02:46:00,22.6,21.0,30.51,West,270,0.0,0.0,93,0.00,,,0.00,weatherlink.com 1.10,2013-01-19 07:46:00,
2013-01-19 03:01:00,22.7,21.0,30.51,West,270,0.0,0.0,94,0.00,,,0.00,weatherlink.com 1.10,2013-01-19 08:01:00,
2013-01-19 03:16:00,23.3,22.0,30.50,West,270,0.0,0.0,95,0.00,,,0.00,weatherlink.com 1.10,2013-01-19 08:16:00,
2013-01-19 03:31:00,23.5,22.0,30.50,West,270,0.0,0.0,95,0.00,,,0.00,weatherlink.com 1.10,2013-01-19 08:31:00,
2013-01-19 03:46:00,23.5,22.0,30.50,West,270,0.0,0.0,95,0.00,,,0.00,weatherlink.com 1.10,2013-01-19 08:46:00,
2013-01-19 04:01:00,23.2,22.0,30.50,West,270,0.0,0.0,94,0.00,,,0.00,weatherlink.com 1.10,2013-01-19 09:01:00,
2013-01-19 04:16:00,23.3,22.0,30.50,West,270,0.0,0.0,94,0.00,,,0.00,weatherlink.com 1.10,2013-01-19 09:16:00,
2013-01-19 04:31:00,23.0,22.0,30.50,West,270,0.0,0.0,94,0.00,,,0.00,weatherlink.com 1.10,2013-01-19 09:31:00,
2013-01-19 04:46:00,22.8,21.0,30.50,West,270,0.0,0.0,94,0.00,,,0.00,weatherlink.com 1.10,2013-01-19 09:46:00,
2013-01-19 05:01:00,22.5,21.0,30.50,West,270,0.0,0.0,94,0.00,,,0.00,weatherlink.com 1.10,2013-01-19 10:01:00,
2013-01-19 05:16:00,22.3,21.0,30.50,West,270,0.0,0.0,94,0.00,,,0.00,weatherlink.com 1.10,2013-01-19 10:16:00,
2013-01-19 05:31:00,22.2,21.0,30.50,West,270,0.0,0.0,94,0.00,,,0.00,weatherlink.com 1.10,2013-01-19 10:31:00,
2013-01-19 05:46:00,21.9,21.0,30.50,West,270,0.0,0.0,94,0.00,,,0.00,weatherlink.com 1.10,2013-01-19 10:46:00,
2013-01-19 06:01:00,21.9,21.0,30.50,West,270,0.0,0.0,94,0.00,,,0.00,weatherlink.com 1.10,2013-01-19 11:01:00,
2013-01-19 08:01:00,21.5,20.0,30.51,West,270,0.0,0.0,94,0.00,,,0.00,weatherlink.com 1.10,2013-01-19 13:01:00,
2013-01-19 08:16:00,22.5,21.0,30.50,West,270,0.0,0.0,95,0.00,,,0.00,weatherlink.com 1.10,2013-01-19 13:16:00,
2013-01-19 08:31:00,23.6,23.0,30.51,West,270,0.0,0.0,96,0.00,,,0.00,weatherlink.com 1.10,2013-01-19 13:31:00,
2013-01-19 09:01:00,26.7,26.0,30.51,West,270,0.0,0.0,96,0.00,,,0.00,weatherlink.com 1.10,2013-01-19 14:01:00,
2013-01-19 09:16:00,28.3,26.0,30.51,West,270,0.0,0.0,92,0.00,,,0.00,weatherlink.com 1.10,2013-01-19 14:16:00,
2013-01-19 09:47:00,32.1,27.0,30.51,West,270,0.0,0.0,82,0.00,,,0.00,weatherlink.com 1.10,2013-01-19 14:47:00,
2013-01-19 10:02:00,33.7,28.0,30.51,West,270,0.0,0.0,81,0.00,,,0.00,weatherlink.com 1.10,2013-01-19 15:02:00,
2013-01-19 10:17:00,35.2,30.0,30.50,West,270,0.0,0.0,80,0.00,,,0.00,weatherlink.com 1.10,2013-01-19 15:17:00,
2013-01-19 10:32:00,36.4,30.0,30.49,West,270,0.0,0.0,77,0.00,,,0.00,weatherlink.com 1.10,2013-01-19 15:32:00,
2013-01-19 10:47:00,38.0,30.0,30.48,West,270,0.0,0.0,73,0.00,,,0.00,weatherlink.com 1.10,2013-01-19 15:47:00,
2013-01-19 11:03:00,39.1,30.0,30.47,West,270,0.0,0.0,71,0.00,,,0.00,weatherlink.com 1.10,2013-01-19 16:03:00,
2013-01-19 11:18:00,40.3,30.0,30.46,West,270,0.0,0.0,67,0.00,,,0.00,weatherlink.com 1.10,2013-01-19 16:18:00,
2013-01-19 11:33:00,41.2,29.0,30.44,West,270,0.0,0.0,63,0.00,,,0.00,weatherlink.com 1.10,2013-01-19 16:33:00,
2013-01-19 11:48:00,42.1,30.0,30.43,West,270,0.0,0.0,63,0.00,,,0.00,weatherlink.com 1.10,2013-01-19 16:48:00,
2013-01-19 12:02:00,43.1,29.0,30.41,West,270,0.0,0.0,59,0.00,,,0.00,weatherlink.com 1.10,2013-01-19 17:02:00,
2013-01-19 12:18:00,43.7,29.0,30.40,West,270,0.0,0.0,57,0.00,,,0.00,weatherlink.com 1.10,2013-01-19 17:18:00,
2013-01-19 12:34:00,47.2,31.0,30.39,WNW,283,0.0,0.0,54,0.01,,,0.01,weatherlink.com 1.10,2013-01-19 17:34:00,
2013-01-19 12:49:00,48.3,25.0,30.38,ESE,116,1.0,4.0,41,0.02,,,0.02,weatherlink.com 1.10,2013-01-19 17:49:00,
2013-01-19 13:03:00,49.2,28.0,30.36,WSW,248,0.0,4.0,44,0.02,,,0.02,weatherlink.com 1.10,2013-01-19 18:03:00,
2013-01-19 13:19:00,50.1,27.0,30.35,SE,141,1.0,3.0,41,0.02,,,0.02,weatherlink.com 1.10,2013-01-19 18:19:00,
2013-01-19 13:33:00,51.0,28.0,30.34,SSE,154,0.0,3.0,42,0.01,,,0.02,weatherlink.com 1.10,2013-01-19 18:33:00,
2013-01-19 13:49:00,52.0,28.0,30.33,ESE,106,1.0,2.0,39,0.00,,,0.02,weatherlink.com 1.10,2013-01-19 18:49:00,
2013-01-19 14:20:00,53.3,27.0,30.31,ESE,103,0.0,3.0,37,0.00,,,0.02,weatherlink.com 1.10,2013-01-19 19:20:00,
2013-01-19 14:51:00,55.6,27.0,30.30,SE,129,1.0,5.0,33,0.00,,,0.02,weatherlink.com 1.10,2013-01-19 19:51:00,
2013-01-19 16:21:00,56.2,26.0,30.27,ESE,122,2.0,3.0,31,0.00,,,0.02,weatherlink.com 1.10,2013-01-19 21:21:00,
2013-01-19 16:36:00,54.9,26.0,30.26,East,96,0.0,2.0,33,0.00,,,0.02,weatherlink.com 1.10,2013-01-19 21:36:00,
2013-01-19 16:51:00,53.5,27.0,30.26,East,96,0.0,0.0,36,0.00,,,0.02,weatherlink.com 1.10,2013-01-19 21:51:00,
2013-01-19 17:21:00,48.4,27.0,30.25,East,96,0.0,1.0,44,0.00,,,0.02,weatherlink.com 1.10,2013-01-19 22:21:00,
2013-01-19 17:37:00,46.7,27.0,30.25,East,96,0.0,1.0,47,0.00,,,0.02,weatherlink.com 1.10,2013-01-19 22:37:00,
2013-01-19 17:52:00,45.2,27.0,30.25,East,96,0.0,0.0,49,0.00,,,0.02,weatherlink.com 1.10,2013-01-19 22:52:00,
2013-01-19 18:07:00,43.8,27.0,30.25,East,96,0.0,0.0,51,0.00,,,0.02,weatherlink.com 1.10,2013-01-19 23:07:00,
2013-01-19 18:37:00,42.2,25.0,30.25,East,96,0.0,0.0,51,0.00,,,0.02,weatherlink.com 1.10,2013-01-19 23:37:00,
2013-01-19 18:52:00,41.5,27.0,30.25,East,96,0.0,0.0,57,0.00,,,0.02,weatherlink.com 1.10,2013-01-19 23:52:00,
2013-01-19 19:07:00,39.9,26.0,30.25,East,96,0.0,0.0,58,0.00,,,0.02,weatherlink.com 1.10,2013-01-20 00:07:00,
2013-01-19 19:22:00,38.8,27.0,30.25,East,96,0.0,0.0,64,0.00,,,0.02,weatherlink.com 1.10,2013-01-20 00:22:00,
2013-01-19 19:37:00,37.6,28.0,30.26,East,96,0.0,0.0,68,0.00,,,0.02,weatherlink.com 1.10,2013-01-20 00:37:00,
2013-01-19 19:52:00,37.1,28.0,30.26,East,96,0.0,0.0,69,0.00,,,0.02,weatherlink.com 1.10,2013-01-20 00:52:00,
2013-01-19 20:07:00,36.4,27.0,30.26,East,96,0.0,0.0,68,0.00,,,0.02,weatherlink.com 1.10,2013-01-20 01:07:00,
2013-01-19 20:22:00,35.8,27.0,30.25,East,96,0.0,0.0,69,0.00,,,0.02,weatherlink.com 1.10,2013-01-20 01:22:00,
2013-01-19 20:37:00,35.6,27.0,30.25,East,96,0.0,0.0,71,0.00,,,0.02,weatherlink.com 1.10,2013-01-20 01:37:00,
2013-01-19 20:52:00,35.0,28.0,30.25,East,96,0.0,0.0,75,0.00,,,0.02,weatherlink.com 1.10,2013-01-20 01:52:00,
2013-01-19 21:07:00,34.5,28.0,30.24,East,96,0.0,0.0,77,0.00,,,0.02,weatherlink.com 1.10,2013-01-20 02:07:00,
2013-01-19 22:07:00,36.8,27.0,30.23,East,96,0.0,0.0,69,0.00,,,0.02,weatherlink.com 1.10,2013-01-20 03:07:00,
2013-01-19 22:22:00,37.8,28.0,30.22,East,96,0.0,0.0,69,0.00,,,0.02,weatherlink.com 1.10,2013-01-20 03:22:00,
2013-01-19 22:37:00,37.7,29.0,30.21,East,96,0.0,0.0,70,0.00,,,0.02,weatherlink.com 1.10,2013-01-20 03:37:00,
2013-01-19 22:52:00,37.4,29.0,30.21,East,96,0.0,0.0,73,0.00,,,0.02,weatherlink.com 1.10,2013-01-20 03:52:00,
2013-01-19 23:07:00,36.6,29.0,30.21,East,96,0.0,0.0,73,0.00,,,0.02,weatherlink.com 1.10,2013-01-20 04:07:00,
2013-01-19 23:37:00,35.8,29.0,30.20,East,96,0.0,0.0,77,0.00,,,0.02,weatherlink.com 1.10,2013-01-20 04:37:00,
2013-01-19 23:52:00,35.6,30.0,30.19,East,96,0.0,0.0,80,0.00,,,0.02,weatherlink.com 1.10,2013-01-20 04:52:00,